Moses Lake, WA

6:58 AM PST on December 05, 2016 (GMT -0800)
Grant County International

Weather History for KMWH - March, 2014

Change the Weather History Date:

Saturday, March 22, 2014

  Actual Average Record
Temperature  
Mean Temperature 37 °F 45 °F  
Max Temperature 53 °F 57 °F 70 °F (2004)
Min Temperature 20 °F 33 °F 19 °F (2008)
Degree Days  
Heating Degree Days 28 20  
Month to date heating degree days 467 497  
Since 1 July heating degree days 4978 5002  
Cooling Degree Days 0 0  
Month to date cooling degree days 0 0  
Year to date cooling degree days 0 0  
Moisture  
Dew Point 17 °F    
Average Humidity 49    
Maximum Humidity 77    
Minimum Humidity 20    
Precipitation  
Precipitation 0.00 in 0.03 in 0.24 in (2016)
Month to date precipitation 0.49 0.50  
Year to date precipitation 1.63 2.44  
Sea Level Pressure  
Sea Level Pressure 30.27 in    
Wind  
Wind Speed 7 mph (SE)    
Max Wind Speed 20 mph    
Max Gust Speed 24 mph    
Visibility 10 miles    
Events      
T = Trace of Precipitation, MM = Missing Value Source: NWS Daily Summary

Daily Weather History Graph

Daily Weather History Graph

Search for Another Location

Airport or City:

Trip Planner

Search our weather history database for the weather conditions in past years. The results will help you decide how hot, cold, wet, or windy it might be!

Date:

Astronomy

Mar. 22, 2014 Rise Set
Actual Time 6:56 AM PDT 7:12 PM PDT
Civil Twilight 6:25 AM PDT 7:43 PM PDT
Nautical Twilight 5:49 AM PDT 8:19 PM PDT
Astronomical Twilight 5:12 AM PDT 8:56 PM PDT
Moon 12:55 AM PDT (3/22) 10:24 AM PDT (3/22)
Length of Visible Light 13h 18m
Length of Day
12h 16m
Waning Gibbous, 64% of the Moon is Illuminated
Mar 22
Waning Gibbous
Mar 23
Last Quarter
Mar 30
New
Apr 7
First Quarter
Apr 15
Full

Hourly Weather History & Observations

Time (PDT) Temp. Windchill Dew Point Humidity Pressure Visibility Wind Dir Wind Speed Gust Speed Precip Events Conditions
12:52 AM 28.0 °F 22.8 °F 16.0 °F 61% 30.30 in 10.0 mi NNE 4.6 mph - N/A   Clear
1:52 AM 26.1 °F 19.4 °F 16.0 °F 66% 30.32 in 10.0 mi North 5.8 mph - N/A   Clear
2:52 AM 26.1 °F 16.8 °F 16.0 °F 66% 30.32 in 10.0 mi North 9.2 mph - N/A   Clear
3:52 AM 24.1 °F 17.0 °F 17.1 °F 75% 30.32 in 10.0 mi North 5.8 mph - N/A   Clear
4:52 AM 23.0 °F 13.9 °F 16.0 °F 74% 30.33 in 10.0 mi North 8.1 mph - N/A   Clear
5:52 AM 21.9 °F 14.5 °F 16.0 °F 78% 30.34 in 10.0 mi North 5.8 mph - N/A   Clear
6:52 AM 21.0 °F 14.6 °F 16.0 °F 81% 30.36 in 10.0 mi North 4.6 mph - N/A   Clear
7:52 AM 27.0 °F 21.6 °F 19.0 °F 72% 30.36 in 10.0 mi North 4.6 mph - N/A   Clear
8:52 AM 33.1 °F 30.0 °F 21.0 °F 61% 30.35 in 10.0 mi NNE 3.5 mph - N/A   Clear
9:52 AM 37.0 °F - 19.0 °F 48% 30.36 in 10.0 mi Calm Calm - N/A   Clear
10:52 AM 42.1 °F - 19.0 °F 40% 30.35 in 10.0 mi Calm Calm - N/A   Clear
11:52 AM 46.9 °F - 17.1 °F 30% 30.34 in 10.0 mi Variable 4.6 mph - N/A   Clear
12:52 PM 52.0 °F - 18.0 °F 26% 30.31 in 10.0 mi South 9.2 mph - N/A   Clear
1:52 PM 52.0 °F - 15.1 °F 23% 30.29 in 10.0 mi South 13.8 mph 18.4 mph N/A   Clear
2:52 PM 53.1 °F - 14.0 °F 21% 30.25 in 10.0 mi South 16.1 mph - N/A   Clear
3:52 PM 53.1 °F - 14.0 °F 21% 30.23 in 10.0 mi South 13.8 mph - N/A   Clear
4:52 PM 53.1 °F - 16.0 °F 23% 30.22 in 10.0 mi South 11.5 mph - N/A   Mostly Cloudy
5:52 PM 53.1 °F - 15.1 °F 22% 30.19 in 10.0 mi South 11.5 mph - N/A   Clear
6:52 PM 50.0 °F - 17.1 °F 27% 30.18 in 10.0 mi SSE 6.9 mph - N/A   Clear
7:52 PM 43.0 °F 38.8 °F 19.0 °F 38% 30.17 in 10.0 mi SSE 6.9 mph - N/A   Clear
8:52 PM 42.1 °F 38.4 °F 19.9 °F 41% 30.16 in 10.0 mi SSE 5.8 mph - N/A   Clear
9:52 PM 46.9 °F - 19.0 °F 33% 30.15 in 10.0 mi South 10.4 mph - N/A   Mostly Cloudy
10:52 PM 44.1 °F 39.5 °F 21.9 °F 42% 30.16 in 10.0 mi WSW 8.1 mph - N/A   Mostly Cloudy
11:52 PM 39.9 °F 36.7 °F 19.0 °F 43% 30.16 in 10.0 mi West 4.6 mph - N/A   Clear